Location: *
(40.7873°S, 98.7174°E)
Time: 02:06:58
(UTC+00:00)

SAR-Lupe-3 - Visible Passes

Search period start: 07 October 2022 00:00
Search period end: 17 October 2022 00:00
Orbit: 479 x 487 km, 98.2° (Epoch: 10 April)

Date Brightness Start Highest point End Pass type
(mag) Time Alt. Az. Time Alt. Az. Time Alt. Az.
07 Oct 6.2 13:21:30 10° S 13:24:52 36° WSW 13:28:12 10° NW visible
08 Oct 4.7 12:56:33 10° S 13:00:14 79° WSW 13:03:50 10° NNW visible
09 Oct 4.8 12:31:57 10° SSE 12:35:29 46° E 12:38:58 10° N visible
09 Oct 8.0 14:07:02 10° SW 14:08:22 12° WSW 14:09:43 10° W visible
10 Oct 5.8 12:07:45 10° SE 12:10:39 22° E 12:13:31 10° NNE visible
10 Oct 7.2 13:41:00 10° SSW 13:43:53 22° WSW 13:46:44 10° WNW visible
11 Oct 5.8 13:15:48 10° S 13:19:18 44° WSW 13:22:45 10° NW visible
12 Oct 4.5 12:50:58 10° SSE 12:54:38 82° ENE 12:58:13 10° NNW visible
13 Oct 5.1 12:26:27 10° SSE 12:29:51 36° E 12:33:12 10° NNE visible
13 Oct 7.8 14:00:53 10° SSW 14:02:51 14° WSW 14:04:49 10° W visible
14 Oct 6.8 13:35:13 10° SSW 13:38:20 27° WSW 13:41:24 10° NW visible
15 Oct 5.3 13:10:08 10° S 13:13:43 56° WSW 13:17:14 10° NNW visible
16 Oct 4.5 12:45:23 10° SSE 12:49:01 65° ENE 12:52:35 10° N visible
